Pendleton, OR

10:24 PM PDT on July 20, 2017 (GMT -0700)
Eastern Oreg Regional At Pendleton

Weather History for KPDT - December, 2012

Change the Weather History Date:

Tuesday, December 4, 2012

  Actual Average Record
Temperature  
Mean Temperature 53 °F 35 °F  
Max Temperature 60 °F 41 °F 70 °F (1923)
Min Temperature 45 °F 29 °F -1 °F (1972)
Degree Days  
Heating Degree Days 12 30  
Month to date heating degree days 59 118  
Since 1 July heating degree days 1204 1371  
Cooling Degree Days 0 0  
Month to date cooling degree days 0 0  
Year to date cooling degree days 611 636  
Growing Degree Days 4 (Base 50)    
Moisture  
Dew Point 42 °F    
Average Humidity 65    
Maximum Humidity 83    
Minimum Humidity 46    
Precipitation  
Precipitation 0.12 in 0.05 in 1.25 in (1978)
Month to date precipitation 0.65 0.21  
Year to date precipitation 13.90 11.40  
Snow  
Snow 0.00 in 0.20 in 3.50 in (1978)
Month to date snowfall 0.0 0.6  
Year to date snowfall 5.9 9.8  
Since 1 July snowfall T 2.1  
Snow Depth 0.00 in    
Sea Level Pressure  
Sea Level Pressure 29.76 in    
Wind  
Wind Speed 14 mph (South)    
Max Wind Speed 30 mph    
Max Gust Speed 41 mph    
Visibility 10 miles    
Events Rain    
T = Trace of Precipitation, MM = Missing Value Source: NWS Daily Summary

Daily Weather History Graph

Daily Weather History Graph

Search for Another Location

Airport or City:

Trip Planner

Search our weather history database for the weather conditions in past years. The results will help you decide how hot, cold, wet, or windy it might be!

Date:

Astronomy

Dec. 04, 2012 Rise Set
Actual Time 7:19 AM PST 4:11 PM PST
Civil Twilight 6:45 AM PST 4:45 PM PST
Nautical Twilight 6:08 AM PST 5:22 PM PST
Astronomical Twilight 5:32 AM PST 5:58 PM PST
Moon 10:16 PM PST (12/4) 11:05 AM PST (12/4)
Length of Visible Light 9h 59m
Length of Day
8h 52m
Waning Gibbous, 68% of the Moon is Illuminated
Dec 4
Waning Gibbous
Dec 6
Last Quarter
Dec 13
New
Dec 19
First Quarter
Dec 28
Full

Hourly Weather History & Observations

Time (PST) Temp. Windchill Dew Point Humidity Pressure Visibility Wind Dir Wind Speed Gust Speed Precip Events Conditions
12:53 AM 48.9 °F - 35.1 °F 59% 29.78 in 10.0 mi SSE 10.4 mph - 0.00 in Rain Light Rain
1:53 AM 45.0 °F 39.7 °F 39.9 °F 82% 29.77 in 6.0 mi South 10.4 mph - 0.03 in Rain Light Rain
2:53 AM 46.0 °F 39.9 °F 39.9 °F 79% 29.73 in 6.0 mi SSE 13.8 mph - 0.08 in Rain Light Rain
3:53 AM 51.1 °F - 39.9 °F 66% 29.70 in 10.0 mi South 12.7 mph 19.6 mph 0.00 in Rain Light Rain
4:53 AM 52.0 °F - 42.1 °F 69% 29.71 in 10.0 mi South 17.3 mph 26.5 mph 0.01 in   Overcast
5:53 AM 52.0 °F - 41.0 °F 66% 29.75 in 10.0 mi South 17.3 mph 24.2 mph N/A   Overcast
6:53 AM 53.1 °F - 42.1 °F 66% 29.77 in 10.0 mi SSW 17.3 mph 25.3 mph N/A   Overcast
7:53 AM 55.0 °F - 42.1 °F 62% 29.77 in 10.0 mi South 12.7 mph 24.2 mph N/A   Overcast
8:53 AM 55.9 °F - 42.1 °F 60% 29.80 in 10.0 mi SSW 9.2 mph - N/A   Overcast
9:53 AM 57.0 °F - 43.0 °F 59% 29.81 in 10.0 mi South 3.5 mph - N/A   Overcast
10:53 AM 57.9 °F - 43.0 °F 58% 29.79 in 10.0 mi South 21.9 mph 28.8 mph N/A   Overcast
11:53 AM 57.9 °F - 43.0 °F 58% 29.79 in 10.0 mi SSW 24.2 mph 31.1 mph N/A   Overcast
12:53 PM 57.9 °F - 44.1 °F 60% 29.78 in 10.0 mi SSW 19.6 mph 32.2 mph N/A   Overcast
1:53 PM 59.0 °F - 43.0 °F 55% 29.77 in 10.0 mi SSW 17.3 mph 27.6 mph N/A   Overcast
2:53 PM 57.9 °F - 44.1 °F 60% 29.78 in 10.0 mi South 17.3 mph - N/A   Overcast
3:53 PM 57.0 °F - 44.1 °F 62% 29.78 in 10.0 mi South 17.3 mph - N/A   Mostly Cloudy
4:53 PM 57.9 °F - 43.0 °F 58% 29.77 in 10.0 mi South 11.5 mph - N/A   Partly Cloudy
5:53 PM 57.0 °F - 43.0 °F 59% 29.75 in 10.0 mi South 11.5 mph - N/A   Overcast
6:53 PM 57.9 °F - 43.0 °F 58% 29.75 in 10.0 mi South 15.0 mph - N/A   Overcast
7:53 PM 57.9 °F - 43.0 °F 58% 29.74 in 10.0 mi South 12.7 mph - N/A   Overcast
8:53 PM 57.0 °F - 43.0 °F 59% 29.74 in 10.0 mi SSW 11.5 mph - N/A   Overcast
9:53 PM 57.0 °F - 43.0 °F 59% 29.73 in 10.0 mi South 11.5 mph - N/A   Overcast
10:53 PM 57.0 °F - 43.0 °F 59% 29.72 in 10.0 mi South 10.4 mph - N/A   Overcast
11:53 PM 57.0 °F - 43.0 °F 59% 29.73 in 10.0 mi SSW 20.7 mph 28.8 mph N/A   Overcast